| time (UTC) | temp C | wind direction | speed KPH | gust KPH | rain 1hr cm | rain 24hr cm | rain mn cm | humidity % | barometer mb |
| 20260507153955 | 30 | 112 | 22.5 | 27.4 | 0.00 | 0.00 | 0.00 | 67 | 1022.1 |
| 20260507153452 | 30 | 118 | 14.5 | 27.4 | 0.00 | 0.00 | 0.00 | 70 | 1021.9 |
| 20260507152949 | 30 | 123 | 16.1 | 29.0 | 0.00 | 0.00 | 0.00 | 68 | 1021.9 |
| 20260507152444 | 30 | 105 | 12.9 | 25.7 | 0.00 | 0.00 | 0.00 | 69 | 1022.0 |
| 20260507151941 | 31 | 157 | 17.7 | 24.1 | 0.00 | 0.00 | 0.00 | 66 | 1021.9 |
| 20260507151437 | 31 | 67 | 17.7 | 22.5 | 0.00 | 0.00 | 0.00 | 66 | 1022.2 |
| 20260507150934 | 31 | 108 | 16.1 | 24.1 | 0.00 | 0.00 | 0.00 | 66 | 1022.0 |
| 20260507150431 | 30 | 146 | 12.9 | 25.7 | 0.00 | 0.00 | 0.00 | 66 | 1022.0 |
| 20260507145927 | 30 | 136 | 19.3 | 25.7 | 0.00 | 0.00 | 0.00 | 66 | 1021.8 |
| 20260507145423 | 30 | 112 | 9.7 | 27.4 | 0.00 | 0.00 | 0.00 | 68 | 1021.9 |
| 20260507144921 | 30 | 116 | 22.5 | 33.8 | 0.00 | 0.00 | 0.00 | 65 | 1022.1 |
| 20260507144418 | 30 | 177 | 9.7 | 33.8 | 0.00 | 0.00 | 0.00 | 70 | 1022.0 |
| 20260507143914 | 31 | 53 | 11.3 | 25.7 | 0.00 | 0.00 | 0.00 | 66 | 1022.3 |
| 20260507143412 | 30 | 120 | 17.7 | 27.4 | 0.00 | 0.00 | 0.00 | 68 | 1022.1 |
| 20260507142908 | 30 | 94 | 24.1 | 27.4 | 0.00 | 0.00 | 0.00 | 68 | 1022.2 |
| 20260507142404 | 30 | 56 | 12.9 | 27.4 | 0.00 | 0.00 | 0.00 | 70 | 1022.1 |
| 20260507141901 | 30 | 120 | 14.5 | 24.1 | 0.00 | 0.00 | 0.00 | 70 | 1022.0 |
| 20260507141357 | 30 | 71 | 14.5 | 33.8 | 0.00 | 0.00 | 0.00 | 68 | 1021.9 |
| 20260507140854 | 30 | 91 | 17.7 | 25.7 | 0.00 | 0.00 | 0.00 | 68 | 1022.1 |
| 20260507140351 | 30 | 99 | 19.3 | 30.6 | 0.00 | 0.00 | 0.00 | 68 | 1021.8 |
| 20260507135849 | 30 | 96 | 17.7 | 30.6 | 0.00 | 0.00 | 0.00 | 67 | 1022.1 |
| 20260507135345 | 30 | 96 | 19.3 | 25.7 | 0.00 | 0.00 | 0.00 | 66 | 1022.0 |
| 20260507134843 | 30 | 92 | 16.1 | 29.0 | 0.00 | 0.00 | 0.00 | 68 | 1021.9 |
| 20260507134339 | 29 | 46 | 14.5 | 24.1 | 0.00 | 0.00 | 0.00 | 70 | 1022.1 |
| 20260507133835 | 30 | 226 | 16.1 | 25.7 | 0.00 | 0.00 | 0.00 | 70 | 1022.0 |
| 20260507133330 | 30 | 139 | 14.5 | 25.7 | 0.00 | 0.00 | 0.00 | 70 | 1021.8 |
| 20260507132829 | 30 | 160 | 11.3 | 24.1 | 0.00 | 0.00 | 0.00 | 70 | 1022.0 |
| 20260507132325 | 30 | 104 | 16.1 | 22.5 | 0.00 | 0.00 | 0.00 | 69 | 1021.8 |
| 20260507131823 | 30 | 97 | 16.1 | 25.7 | 0.00 | 0.00 | 0.00 | 69 | 1021.8 |
| 20260507131319 | 30 | 91 | 17.7 | 29.0 | 0.00 | 0.00 | 0.00 | 68 | 1021.8 |
| 20260507130816 | 30 | 73 | 14.5 | 24.1 | 0.00 | 0.00 | 0.00 | 70 | 1021.6 |
| 20260507130313 | 29 | 77 | 14.5 | 20.9 | 0.00 | 0.00 | 0.00 | 70 | 1021.7 |
| 20260507125812 | 30 | 137 | 17.7 | 22.5 | 0.00 | 0.00 | 0.00 | 70 | 1021.6 |
| 20260507125309 | 29 | 114 | 14.5 | 27.4 | 0.00 | 0.00 | 0.00 | 70 | 1021.6 |
| 20260507124806 | 28 | 96 | 14.5 | 25.7 | 0.00 | 0.00 | 0.00 | 70 | 1021.6 |
| 20260507124302 | 28 | 173 | 16.1 | 20.9 | 0.00 | 0.00 | 0.00 | 71 | 1021.6 |
| 20260507123801 | 28 | 88 | 19.3 | 22.5 | 0.00 | 0.00 | 0.00 | 71 | 1021.6 |
| 20260507123258 | 28 | 71 | 17.7 | 22.5 | 0.00 | 0.00 | 0.00 | 73 | 1021.4 |
| 20260507122754 | 28 | 116 | 17.7 | 24.1 | 0.00 | 0.00 | 0.00 | 74 | 1021.3 |
| 20260507122249 | 28 | 114 | 9.7 | 17.7 | 0.00 | 0.00 | 0.00 | 74 | 1021.4 |
| 20260507121746 | 28 | 220 | 6.4 | 20.9 | 0.00 | 0.00 | 0.00 | 73 | 1021.3 |
| 20260507121241 | 28 | 117 | 14.5 | 20.9 | 0.00 | 0.00 | 0.00 | 73 | 1021.1 |
| 20260507120738 | 28 | 87 | 9.7 | 20.9 | 0.00 | 0.00 | 0.00 | 73 | 1021.0 |
| 20260507120235 | 28 | 92 | 16.1 | 22.5 | 0.00 | 0.00 | 0.00 | 74 | 1020.9 |
| 20260507115731 | 27 | 70 | 17.7 | 22.5 | 0.00 | 0.00 | 0.00 | 75 | 1020.9 |
| 20260507115227 | 27 | 88 | 14.5 | 24.1 | 0.00 | 0.00 | 0.00 | 75 | 1021.1 |
| 20260507114722 | 27 | 126 | 14.5 | 20.9 | 0.00 | 0.00 | 0.00 | 76 | 1020.8 |
| 20260507114220 | 27 | 121 | 11.3 | 22.5 | 0.00 | 0.00 | 0.00 | 77 | 1020.7 |
| 20260507113718 | 27 | 93 | 12.9 | 20.9 | 0.00 | 0.00 | 0.00 | 77 | 1020.9 |
| 20260507113214 | 26 | 69 | 14.5 | 24.1 | 0.00 | 0.00 | 0.00 | 78 | 1020.8 |
| 20260507112712 | 26 | 121 | 11.3 | 16.1 | 0.00 | 0.00 | 0.00 | 78 | 1020.9 |
| 20260507112209 | 26 | 87 | 12.9 | 14.5 | 0.00 | 0.00 | 0.00 | 79 | 1020.7 |
| 20260507111706 | 26 | 102 | 9.7 | 14.5 | 0.00 | 0.00 | 0.00 | 79 | 1020.8 |
| 20260507111203 | 26 | 112 | 9.7 | 12.9 | 0.00 | 0.00 | 0.00 | 80 | 1021.0 |
| 20260507110658 | 26 | 39 | 8.0 | 12.9 | 0.00 | 0.00 | 0.00 | 81 | 1021.0 |
| 20260507110156 | 25 | 72 | 12.9 | 16.1 | 0.00 | 0.00 | 0.00 | 82 | 1020.9 |
| 20260507105653 | 25 | 87 | 11.3 | 12.9 | 0.00 | 0.00 | 0.00 | 82 | 1020.9 |
| 20260507105148 | 25 | 93 | 11.3 | 17.7 | 0.00 | 0.00 | 0.00 | 83 | 1020.8 |
| 20260507104646 | 25 | 129 | 17.7 | 20.9 | 0.00 | 0.00 | 0.00 | 84 | 1020.7 |
| 20260507104142 | 25 | 82 | 12.9 | 17.7 | 0.00 | 0.00 | 0.00 | 85 | 1020.6 |
| 20260507103638 | 24 | 82 | 9.7 | 14.5 | 0.00 | 0.00 | 0.00 | 85 | 1020.7 |
| 20260507103135 | 25 | 61 | 8.0 | 16.1 | 0.00 | 0.00 | 0.00 | 85 | 1020.4 |
| 20260507102632 | 25 | 87 | 17.7 | 22.5 | 0.00 | 0.00 | 0.00 | 85 | 1020.7 |
| 20260507102128 | 24 | 112 | 6.4 | 25.7 | 0.00 | 0.00 | 0.00 | 85 | 1020.6 |
| 20260507101624 | 24 | 96 | 20.9 | 25.7 | 0.00 | 0.00 | 0.00 | 85 | 1020.4 |
| 20260507101120 | 24 | 136 | 8.0 | 17.7 | 0.00 | 0.00 | 0.00 | 85 | 1020.4 |
| 20260507100618 | 24 | 107 | 20.9 | 25.7 | 0.00 | 0.00 | 0.00 | 86 | 1020.0 |
| 20260507100115 | 24 | 63 | 9.7 | 17.7 | 0.00 | 0.00 | 0.00 | 85 | 1020.0 |
| 20260507095613 | 24 | 79 | 12.9 | 24.1 | 0.00 | 0.00 | 0.00 | 85 | 1020.1 |
| 20260507095109 | 24 | 64 | 11.3 | 20.9 | 0.00 | 0.00 | 0.00 | 85 | 1020.1 |
| 20260507094606 | 24 | 88 | 20.9 | 27.4 | 0.00 | 0.00 | 0.00 | 85 | 1020.0 |
| 20260507094103 | 24 | 168 | 8.0 | 17.7 | 0.00 | 0.00 | 0.00 | 84 | 1020.0 |
| 20260507093600 | 24 | 68 | 17.7 | 22.5 | 0.00 | 0.00 | 0.00 | 84 | 1020.0 |
| 20260507093059 | 24 | 124 | 6.4 | 16.1 | 0.00 | 0.00 | 0.00 | 84 | 1020.1 |
| 20260507092555 | 24 | 99 | 14.5 | 25.7 | 0.00 | 0.00 | 0.00 | 84 | 1020.0 |
| 20260507092051 | 24 | 93 | 11.3 | 24.1 | 0.00 | 0.00 | 0.00 | 84 | 1020.0 |
| 20260507091548 | 24 | 107 | 14.5 | 22.5 | 0.00 | 0.00 | 0.00 | 83 | 1020.2 |
| 20260507091044 | 24 | 78 | 17.7 | 24.1 | 0.00 | 0.00 | 0.00 | 83 | 1020.3 |
| 20260507090540 | 24 | 81 | 20.9 | 25.7 | 0.00 | 0.00 | 0.00 | 83 | 1020.2 |
| 20260507090037 | 24 | 76 | 24.1 | 35.4 | 0.00 | 0.00 | 0.00 | 83 | 1020.3 |
| 20260507085535 | 24 | 69 | 9.7 | 25.7 | 0.00 | 0.00 | 0.00 | 82 | 1020.0 |
| 20260507085031 | 25 | 59 | 16.1 | 24.1 | 0.00 | 0.00 | 0.00 | 82 | 1020.1 |
| 20260507084528 | 25 | 100 | 22.5 | 27.4 | 0.00 | 0.00 | 0.00 | 81 | 1020.1 |
| 20260507084025 | 25 | 59 | 19.3 | 25.7 | 0.00 | 0.00 | 0.00 | 82 | 1020.1 |
| 20260507083521 | 24 | 82 | 19.3 | 24.1 | 0.00 | 0.00 | 0.00 | 82 | 1020.0 |
| 20260507083018 | 24 | 110 | 9.7 | 24.1 | 0.00 | 0.00 | 0.00 | 82 | 1020.2 |
| 20260507082514 | 24 | 93 | 20.9 | 24.1 | 0.00 | 0.00 | 0.00 | 82 | 1020.3 |
| 20260507082010 | 24 | 71 | 16.1 | 22.5 | 0.00 | 0.00 | 0.00 | 83 | 1020.4 |
| 20260507081507 | 25 | 79 | 12.9 | 25.7 | 0.00 | 0.00 | 0.00 | 83 | 1020.1 |
| 20260507081004 | 25 | 71 | 14.5 | 22.5 | 0.00 | 0.00 | 0.00 | 84 | 1020.0 |
| 20260507080459 | 24 | 88 | 14.5 | 27.4 | 0.00 | 0.00 | 0.00 | 84 | 1020.0 |
| 20260507075955 | 24 | 77 | 16.1 | 25.7 | 0.00 | 0.00 | 0.00 | 84 | 1020.1 |
| 20260507075452 | 24 | 67 | 11.3 | 24.1 | 0.00 | 0.00 | 0.00 | 84 | 1020.1 |
| 20260507074948 | 24 | 23 | 17.7 | 29.0 | 0.00 | 0.00 | 0.00 | 85 | 1020.1 |
| 20260507074445 | 24 | 76 | 17.7 | 27.4 | 0.00 | 0.00 | 0.00 | 85 | 1020.0 |
| 20260507073943 | 24 | 68 | 16.1 | 27.4 | 0.00 | 0.00 | 0.00 | 85 | 1020.0 |
| 20260507073439 | 24 | 82 | 17.7 | 25.7 | 0.00 | 0.00 | 0.00 | 86 | 1020.1 |
| 20260507072936 | 24 | 123 | 9.7 | 20.9 | 0.00 | 0.00 | 0.00 | 86 | 1020.1 |
| 20260507072434 | 24 | 60 | 16.1 | 17.7 | 0.00 | 0.00 | 0.00 | 85 | 1020.3 |
| 20260507071931 | 24 | 138 | 14.5 | 22.5 | 0.00 | 0.00 | 0.00 | 86 | 1020.2 |
| 20260507071428 | 24 | 103 | 14.5 | 22.5 | 0.00 | 0.00 | 0.00 | 85 | 1020.3 |
| 20260507070924 | 24 | 77 | 20.9 | 29.0 | 0.00 | 0.00 | 0.00 | 85 | 1020.4 |
| 20260507070422 | 24 | 79 | 16.1 | 22.5 | 0.00 | 0.00 | 0.00 | 86 | 1020.5 |
| 20260507065918 | 24 | 84 | 17.7 | 22.5 | 0.00 | 0.00 | 0.00 | 86 | 1020.3 |
| 20260507065415 | 24 | 72 | 11.3 | 22.5 | 0.00 | 0.00 | 0.00 | 86 | 1020.3 |
| 20260507064912 | 24 | 152 | 12.9 | 17.7 | 0.00 | 0.00 | 0.00 | 86 | 1020.4 |
| 20260507064410 | 24 | 85 | 12.9 | 20.9 | 0.00 | 0.00 | 0.00 | 86 | 1020.8 |
| 20260507063908 | 24 | 72 | 14.5 | 17.7 | 0.00 | 0.00 | 0.00 | 85 | 1020.7 |
| 20260507063405 | 25 | 99 | 11.3 | 17.7 | 0.00 | 0.00 | 0.00 | 85 | 1020.8 |
| 20260507062902 | 25 | 131 | 12.9 | 24.1 | 0.00 | 0.00 | 0.00 | 84 | 1020.7 |
| 20260507062359 | 25 | 110 | 16.1 | 17.7 | 0.00 | 0.00 | 0.00 | 84 | 1020.8 |
| 20260507061856 | 25 | 83 | 11.3 | 24.1 | 0.00 | 0.00 | 0.00 | 84 | 1020.9 |
| 20260507061354 | 24 | 91 | 12.9 | 22.5 | 0.00 | 0.00 | 0.00 | 84 | 1020.8 |
| 20260507060853 | 25 | 115 | 8.0 | 14.5 | 0.00 | 0.00 | 0.00 | 84 | 1021.1 |
| 20260507060349 | 25 | 84 | 14.5 | 16.1 | 0.00 | 0.00 | 0.00 | 84 | 1021.0 |
| 20260507055846 | 25 | 108 | 6.4 | 14.5 | 0.00 | 0.00 | 0.00 | 83 | 1021.2 |
| 20260507055340 | 25 | 86 | 17.7 | 22.5 | 0.00 | 0.00 | 0.00 | 83 | 1021.3 |
| 20260507054838 | 25 | 77 | 11.3 | 16.1 | 0.00 | 0.00 | 0.00 | 82 | 1021.1 |
| 20260507054334 | 25 | 73 | 11.3 | 16.1 | 0.00 | 0.00 | 0.00 | 82 | 1021.3 |
| 20260507053831 | 25 | 92 | 12.9 | 22.5 | 0.00 | 0.00 | 0.00 | 83 | 1021.3 |
| 20260507053329 | 25 | 56 | 9.7 | 14.5 | 0.00 | 0.00 | 0.00 | 83 | 1021.3 |
| 20260507052828 | 25 | 77 | 14.5 | 17.7 | 0.00 | 0.00 | 0.00 | 83 | 1021.5 |
| 20260507052324 | 25 | 40 | 12.9 | 16.1 | 0.00 | 0.00 | 0.00 | 83 | 1021.6 |
| 20260507051822 | 25 | 95 | 12.9 | 16.1 | 0.00 | 0.00 | 0.00 | 83 | 1021.7 |
| 20260507051319 | 25 | 78 | 14.5 | 16.1 | 0.00 | 0.00 | 0.00 | 83 | 1021.7 |
| 20260507050816 | 25 | 59 | 11.3 | 20.9 | 0.00 | 0.00 | 0.00 | 83 | 1021.7 |
| 20260507050312 | 25 | 75 | 17.7 | 25.7 | 0.00 | 0.00 | 0.00 | 83 | 1021.6 |
| 20260507045809 | 25 | 64 | 14.5 | 17.7 | 0.00 | 0.00 | 0.00 | 82 | 1021.9 |
| 20260507045306 | 25 | 101 | 14.5 | 17.7 | 0.00 | 0.00 | 0.00 | 82 | 1021.7 |
| 20260507044803 | 25 | 92 | 11.3 | 25.7 | 0.00 | 0.00 | 0.00 | 81 | 1022.0 |
| 20260507044259 | 25 | 65 | 8.0 | 22.5 | 0.00 | 0.00 | 0.00 | 81 | 1022.0 |
| 20260507043755 | 25 | 76 | 17.7 | 22.5 | 0.00 | 0.00 | 0.00 | 81 | 1022.1 |
| 20260507043252 | 25 | 94 | 14.5 | 22.5 | 0.00 | 0.00 | 0.00 | 82 | 1022.2 |
| 20260507042748 | 25 | 61 | 14.5 | 17.7 | 0.00 | 0.00 | 0.00 | 83 | 1022.1 |
| 20260507042243 | 25 | 80 | 11.3 | 22.5 | 0.00 | 0.00 | 0.00 | 83 | 1022.3 |
| 20260507041741 | 25 | 90 | 12.9 | 22.5 | 0.00 | 0.00 | 0.00 | 83 | 1022.2 |
| 20260507041238 | 25 | 128 | 12.9 | 20.9 | 0.00 | 0.00 | 0.00 | 84 | 1022.3 |
| 20260507040735 | 25 | 35 | 12.9 | 22.5 | 0.00 | 0.00 | 0.00 | 83 | 1022.4 |
| 20260507040231 | 25 | 86 | 19.3 | 22.5 | 0.00 | 0.00 | 0.00 | 83 | 1022.5 |
| 20260507035727 | 25 | 24 | 14.5 | 17.7 | 0.00 | 0.00 | 0.00 | 83 | 1022.5 |
| 20260507035222 | 25 | 92 | 11.3 | 22.5 | 0.00 | 0.00 | 0.00 | 84 | 1022.3 |
| 20260507034720 | 25 | 63 | 12.9 | 20.9 | 0.00 | 0.00 | 0.00 | 84 | 1022.7 |
| 20260507034217 | 25 | 64 | 12.9 | 24.1 | 0.00 | 0.00 | 0.00 | 85 | 1022.5 |
| 20260507033715 | 25 | 77 | 11.3 | 20.9 | 0.00 | 0.00 | 0.00 | 85 | 1022.5 |
| 20260507033212 | 25 | 131 | 12.9 | 20.9 | 0.00 | 0.00 | 0.00 | 85 | 1022.4 |
| 20260507032710 | 25 | 51 | 17.7 | 20.9 | 0.00 | 0.00 | 0.00 | 85 | 1022.6 |
| 20260507032205 | 25 | 97 | 14.5 | 17.7 | 0.00 | 0.00 | 0.00 | 85 | 1022.7 |
| 20260507031703 | 25 | 87 | 14.5 | 22.5 | 0.00 | 0.00 | 0.00 | 85 | 1022.6 |
| 20260507031159 | 25 | 51 | 9.7 | 22.5 | 0.00 | 0.00 | 0.00 | 84 | 1022.9 |
| 20260507030656 | 25 | 90 | 11.3 | 17.7 | 0.00 | 0.00 | 0.00 | 84 | 1022.9 |
| 20260507030154 | 25 | 67 | 14.5 | 22.5 | 0.00 | 0.00 | 0.00 | 85 | 1022.8 |
| 20260507025651 | 25 | 119 | 16.1 | 24.1 | 0.00 | 0.00 | 0.00 | 85 | 1022.8 |
| 20260507025147 | 25 | 64 | 14.5 | 20.9 | 0.00 | 0.00 | 0.00 | 85 | 1022.8 |
| 20260507024645 | 25 | 67 | 9.7 | 22.5 | 0.00 | 0.00 | 0.00 | 85 | 1022.6 |
| 20260507024143 | 25 | 25 | 14.5 | 25.7 | 0.00 | 0.00 | 0.00 | 85 | 1022.8 |
| 20260507023638 | 25 | 87 | 8.0 | 20.9 | 0.00 | 0.00 | 0.00 | 85 | 1022.7 |
| 20260507023135 | 25 | 46 | 11.3 | 16.1 | 0.00 | 0.00 | 0.00 | 85 | 1022.8 |
| 20260507022632 | 25 | 51 | 4.8 | 17.7 | 0.00 | 0.00 | 0.00 | 85 | 1022.8 |
| 20260507022128 | 25 | 234 | 6.4 | 14.5 | 0.00 | 0.00 | 0.00 | 85 | 1022.7 |
| 20260507021625 | 25 | 51 | 12.9 | 17.7 | 0.00 | 0.00 | 0.00 | 85 | 1022.6 |
| 20260507021120 | 25 | 48 | 8.0 | 16.1 | 0.00 | 0.00 | 0.00 | 85 | 1022.5 |
| 20260507020619 | 25 | 101 | 12.9 | 16.1 | 0.00 | 0.00 | 0.00 | 85 | 1022.6 |
| 20260507020114 | 25 | 89 | 9.7 | 12.9 | 0.00 | 0.00 | 0.00 | 85 | 1022.6 |
| 20260507015613 | 25 | 71 | 12.9 | 20.9 | 0.00 | 0.00 | 0.00 | 85 | 1022.3 |
| 20260507015110 | 25 | 78 | 12.9 | 17.7 | 0.00 | 0.00 | 0.00 | 85 | 1022.6 |
| 20260507014607 | 25 | 76 | 9.7 | 17.7 | 0.00 | 0.00 | 0.00 | 86 | 1022.3 |
| 20260507014102 | 25 | 78 | 9.7 | 14.5 | 0.00 | 0.00 | 0.00 | 85 | 1022.3 |
| 20260507013559 | 25 | 74 | 9.7 | 16.1 | 0.00 | 0.00 | 0.00 | 85 | 1022.2 |
| 20260507013056 | 25 | 63 | 11.3 | 22.5 | 0.00 | 0.00 | 0.00 | 85 | 1022.3 |
| 20260507012554 | 25 | 31 | 11.3 | 20.9 | 0.00 | 0.00 | 0.00 | 86 | 1022.2 |
| 20260507012049 | 25 | 91 | 14.5 | 14.5 | 0.00 | 0.00 | 0.00 | 86 | 1022.3 |
| 20260507011547 | 25 | 99 | 19.3 | 20.9 | 0.00 | 0.00 | 0.00 | 86 | 1022.2 |
| 20260507011043 | 25 | 93 | 11.3 | 17.7 | 0.00 | 0.00 | 0.00 | 86 | 1022.2 |
| 20260507010538 | 25 | 71 | 11.3 | 17.7 | 0.00 | 0.00 | 0.00 | 86 | 1021.9 |
| 20260507010034 | 25 | 75 | 6.4 | 14.5 | 0.00 | 0.00 | 0.00 | 86 | 1022.1 |
| 20260507005532 | 25 | 78 | 8.0 | 16.1 | 0.00 | 0.00 | 0.00 | 86 | 1021.9 |
| 20260507005028 | 25 | 66 | 8.0 | 11.3 | 0.00 | 0.00 | 0.00 | 86 | 1022.0 |
| 20260507004525 | 25 | 57 | 11.3 | 14.5 | 0.00 | 0.00 | 0.00 | 86 | 1022.0 |
| 20260507004023 | 25 | 92 | 9.7 | 14.5 | 0.00 | 0.00 | 0.00 | 86 | 1022.0 |
| 20260507003518 | 25 | 68 | 14.5 | 16.1 | 0.00 | 0.00 | 0.00 | 86 | 1021.9 |
| 20260507003014 | 25 | 89 | 9.7 | 16.1 | 0.00 | 0.00 | 0.00 | 86 | 1021.7 |
| 20260507002510 | 25 | 85 | 8.0 | 14.5 | 0.00 | 0.00 | 0.00 | 86 | 1021.8 |
| 20260507002006 | 25 | 105 | 11.3 | 16.1 | 0.00 | 0.00 | 0.00 | 86 | 1021.7 |
| 20260507001503 | 25 | 96 | 12.9 | 16.1 | 0.00 | 0.00 | 0.00 | 85 | 1021.8 |
| 20260507001000 | 25 | 32 | 8.0 | 11.3 | 0.00 | 0.00 | 0.00 | 85 | 1021.8 |
| 20260507000456 | 26 | 168 | 9.7 | 16.1 | 0.00 | 0.00 | 0.00 | 85 | 1021.6 |
| 20260506235952 | 26 | 89 | 9.7 | 17.7 | 0.00 | 0.00 | 0.00 | 85 | 1021.5 |
| 20260506235450 | 25 | 108 | 4.8 | 11.3 | 0.00 | 0.00 | 0.00 | 85 | 1021.5 |
| 20260506234945 | 25 | 129 | 9.7 | 14.5 | 0.00 | 0.00 | 0.00 | 85 | 1021.5 |
| 20260506234443 | 25 | 103 | 11.3 | 17.7 | 0.00 | 0.00 | 0.00 | 85 | 1021.6 |
| 20260506233940 | 25 | 132 | 9.7 | 12.9 | 0.00 | 0.00 | 0.00 | 85 | 1021.3 |
| 20260506233436 | 25 | 85 | 6.4 | 16.1 | 0.00 | 0.00 | 0.00 | 85 | 1021.4 |
| 20260506232933 | 25 | 87 | 12.9 | 17.7 | 0.00 | 0.00 | 0.00 | 85 | 1021.4 |
| 20260506232429 | 26 | 200 | 6.4 | 20.9 | 0.00 | 0.00 | 0.00 | 85 | 1021.0 |
| 20260506231925 | 25 | 132 | 14.5 | 20.9 | 0.00 | 0.00 | 0.00 | 84 | 1021.2 |
| 20260506231423 | 25 | 79 | 14.5 | 20.9 | 0.00 | 0.00 | 0.00 | 84 | 1021.1 |
| 20260506230920 | 25 | 123 | 9.7 | 20.9 | 0.00 | 0.00 | 0.00 | 85 | 1021.0 |
| 20260506230416 | 26 | 146 | 14.5 | 20.9 | 0.00 | 0.00 | 0.00 | 85 | 1020.9 |
| 20260506225913 | 26 | 121 | 16.1 | 22.5 | 0.00 | 0.00 | 0.00 | 85 | 1020.8 |
| 20260506225410 | 26 | 93 | 9.7 | 17.7 | 0.00 | 0.00 | 0.00 | 84 | 1021.1 |
| 20260506224907 | 26 | 183 | 14.5 | 22.5 | 0.00 | 0.00 | 0.00 | 84 | 1020.9 |
| 20260506224405 | 26 | 79 | 19.3 | 25.7 | 0.00 | 0.00 | 0.00 | 84 | 1020.8 |
| 20260506223900 | 26 | 111 | 11.3 | 17.7 | 0.00 | 0.00 | 0.00 | 84 | 1020.8 |
| 20260506223356 | 26 | 144 | 9.7 | 17.7 | 0.00 | 0.00 | 0.00 | 84 | 1020.6 |
| 20260506222853 | 26 | 143 | 11.3 | 17.7 | 0.00 | 0.00 | 0.00 | 83 | 1020.7 |
| 20260506222349 | 26 | 216 | 17.7 | 25.7 | 0.00 | 0.00 | 0.00 | 83 | 1020.6 |
| 20260506221847 | 26 | 124 | 11.3 | 22.5 | 0.00 | 0.00 | 0.00 | 83 | 1020.4 |
| 20260506221344 | 26 | 123 | 17.7 | 20.9 | 0.00 | 0.00 | 0.00 | 83 | 1020.5 |
| 20260506220842 | 26 | 100 | 12.9 | 20.9 | 0.00 | 0.00 | 0.00 | 82 | 1020.5 |
| 20260506220337 | 26 | 108 | 17.7 | 22.5 | 0.00 | 0.00 | 0.00 | 82 | 1020.6 |
| 20260506215834 | 26 | 128 | 17.7 | 20.9 | 0.00 | 0.00 | 0.00 | 81 | 1020.5 |
| 20260506215330 | 26 | 123 | 19.3 | 25.7 | 0.00 | 0.00 | 0.00 | 81 | 1020.4 |
| 20260506214826 | 26 | 147 | 17.7 | 25.7 | 0.00 | 0.00 | 0.00 | 81 | 1020.4 |
| 20260506214323 | 26 | 142 | 12.9 | 25.7 | 0.00 | 0.00 | 0.00 | 80 | 1020.3 |
| 20260506213821 | 27 | 121 | 16.1 | 22.5 | 0.00 | 0.00 | 0.00 | 81 | 1020.4 |
| 20260506213318 | 27 | 87 | 19.3 | 29.0 | 0.00 | 0.00 | 0.00 | 80 | 1020.5 |
| 20260506212815 | 27 | 76 | 12.9 | 24.1 | 0.00 | 0.00 | 0.00 | 79 | 1020.6 |
| 20260506212311 | 27 | 100 | 11.3 | 29.0 | 0.00 | 0.00 | 0.00 | 78 | 1020.5 |
| 20260506211806 | 27 | 139 | 16.1 | 22.5 | 0.00 | 0.00 | 0.00 | 79 | 1020.3 |
| 20260506211303 | 27 | 104 | 19.3 | 24.1 | 0.00 | 0.00 | 0.00 | 78 | 1020.1 |
| 20260506210800 | 27 | 106 | 22.5 | 27.4 | 0.00 | 0.00 | 0.00 | 78 | 1020.4 |
| 20260506210257 | 27 | 103 | 16.1 | 27.4 | 0.00 | 0.00 | 0.00 | 78 | 1020.4 |
| 20260506205754 | 27 | 113 | 19.3 | 24.1 | 0.00 | 0.00 | 0.00 | 76 | 1020.3 |
| 20260506205249 | 27 | 75 | 22.5 | 33.8 | 0.00 | 0.00 | 0.00 | 76 | 1020.4 |
| 20260506204746 | 27 | 97 | 19.3 | 29.0 | 0.00 | 0.00 | 0.00 | 75 | 1020.3 |
| 20260506204244 | 28 | 107 | 25.7 | 33.8 | 0.00 | 0.00 | 0.00 | 74 | 1020.4 |
| 20260506203741 | 28 | 133 | 20.9 | 27.4 | 0.00 | 0.00 | 0.00 | 73 | 1020.1 |
| 20260506203239 | 28 | 98 | 22.5 | 30.6 | 0.00 | 0.00 | 0.00 | 73 | 1020.5 |
| 20260506202736 | 28 | 109 | 19.3 | 25.7 | 0.00 | 0.00 | 0.00 | 74 | 1020.4 |
| 20260506202232 | 28 | 236 | 8.0 | 17.7 | 0.00 | 0.00 | 0.00 | 75 | 1020.2 |
| 20260506201729 | 28 | 128 | 17.7 | 24.1 | 0.00 | 0.00 | 0.00 | 73 | 1020.3 |
| 20260506201226 | 28 | 108 | 16.1 | 27.4 | 0.00 | 0.00 | 0.00 | 72 | 1020.3 |
| 20260506200723 | 28 | 69 | 19.3 | 27.4 | 0.00 | 0.00 | 0.00 | 72 | 1020.2 |
| 20260506200220 | 28 | 180 | 19.3 | 27.4 | 0.00 | 0.00 | 0.00 | 72 | 1020.3 |
| 20260506195716 | 28 | 132 | 16.1 | 25.7 | 0.00 | 0.00 | 0.00 | 72 | 1020.5 |
| 20260506195212 | 28 | 77 | 12.9 | 20.9 | 0.00 | 0.00 | 0.00 | 73 | 1020.4 |
| 20260506194704 | 28 | 130 | 14.5 | 24.1 | 0.00 | 0.00 | 0.00 | 70 | 1020.5 |
| 20260506194200 | 28 | 87 | 24.1 | 27.4 | 0.00 | 0.00 | 0.00 | 70 | 1020.6 |
| 20260506193658 | 28 | 156 | 22.5 | 30.6 | 0.00 | 0.00 | 0.00 | 70 | 1020.6 |
| 20260506193155 | 28 | 124 | 19.3 | 29.0 | 0.00 | 0.00 | 0.00 | 70 | 1020.6 |
| 20260506192651 | 29 | 145 | 17.7 | 27.4 | 0.00 | 0.00 | 0.00 | 70 | 1020.7 |
| 20260506192147 | 29 | 153 | 16.1 | 22.5 | 0.00 | 0.00 | 0.00 | 70 | 1020.8 |
| 20260506191645 | 29 | 132 | 17.7 | 29.0 | 0.00 | 0.00 | 0.00 | 71 | 1021.0 |
| 20260506191141 | 29 | 107 | 19.3 | 24.1 | 0.00 | 0.00 | 0.00 | 69 | 1020.7 |
| 20260506190638 | 30 | 90 | 17.7 | 29.0 | 0.00 | 0.00 | 0.00 | 68 | 1020.8 |
| 20260506190135 | 30 | 128 | 17.7 | 22.5 | 0.00 | 0.00 | 0.00 | 65 | 1020.7 |
| 20260506185632 | 30 | 143 | 16.1 | 22.5 | 0.00 | 0.00 | 0.00 | 69 | 1020.6 |
| 20260506185128 | 30 | 147 | 20.9 | 27.4 | 0.00 | 0.00 | 0.00 | 66 | 1020.6 |
| 20260506184626 | 30 | 100 | 22.5 | 27.4 | 0.00 | 0.00 | 0.00 | 69 | 1021.0 |
| 20260506184123 | 30 | 139 | 17.7 | 27.4 | 0.00 | 0.00 | 0.00 | 68 | 1020.8 |
| 20260506183619 | 30 | 177 | 12.9 | 29.0 | 0.00 | 0.00 | 0.00 | 68 | 1020.9 |
| 20260506183115 | 30 | 151 | 17.7 | 35.4 | 0.00 | 0.00 | 0.00 | 66 | 1021.0 |
| 20260506182613 | 30 | 199 | 17.7 | 29.0 | 0.00 | 0.00 | 0.00 | 68 | 1021.0 |
| 20260506182110 | 30 | 98 | 11.3 | 22.5 | 0.00 | 0.00 | 0.00 | 67 | 1021.0 |
| 20260506181608 | 30 | 87 | 20.9 | 25.7 | 0.00 | 0.00 | 0.00 | 67 | 1021.1 |
| 20260506181105 | 30 | 163 | 12.9 | 25.7 | 0.00 | 0.00 | 0.00 | 71 | 1021.2 |
| 20260506180601 | 30 | 172 | 17.7 | 35.4 | 0.00 | 0.00 | 0.00 | 71 | 1021.3 |
| 20260506180058 | 30 | 171 | 12.9 | 24.1 | 0.00 | 0.00 | 0.00 | 67 | 1021.3 |
| 20260506175554 | 30 | 71 | 22.5 | 27.4 | 0.00 | 0.00 | 0.00 | 67 | 1021.5 |
| 20260506175050 | 30 | 117 | 24.1 | 27.4 | 0.00 | 0.00 | 0.00 | 68 | 1021.5 |
| 20260506174549 | 30 | 100 | 24.1 | 30.6 | 0.00 | 0.00 | 0.00 | 66 | 1021.6 |
| 20260506174045 | 30 | 134 | 19.3 | 27.4 | 0.00 | 0.00 | 0.00 | 65 | 1021.9 |
| 20260506173543 | 30 | 93 | 24.1 | 29.0 | 0.00 | 0.00 | 0.00 | 63 | 1021.8 |
| 20260506173039 | 30 | 189 | 17.7 | 25.7 | 0.00 | 0.00 | 0.00 | 65 | 1021.6 |
| 20260506172537 | 30 | 181 | 14.5 | 27.4 | 0.00 | 0.00 | 0.00 | 65 | 1021.8 |
| 20260506172033 | 30 | 97 | 20.9 | 29.0 | 0.00 | 0.00 | 0.00 | 66 | 1022.0 |
| 20260506171531 | 30 | 109 | 27.4 | 35.4 | 0.00 | 0.00 | 0.00 | 66 | 1022.1 |
| 20260506171028 | 31 | 111 | 20.9 | 35.4 | 0.00 | 0.00 | 0.00 | 64 | 1022.2 |
| 20260506170526 | 30 | 70 | 20.9 | 27.4 | 0.00 | 0.00 | 0.00 | 66 | 1022.2 |
| 20260506170023 | 30 | 115 | 24.1 | 29.0 | 0.00 | 0.00 | 0.00 | 66 | 1022.3 |
| 20260506165521 | 30 | 52 | 12.9 | 29.0 | 0.00 | 0.00 | 0.00 | 65 | 1022.4 |
| 20260506165017 | 30 | 113 | 24.1 | 33.8 | 0.00 | 0.00 | 0.00 | 66 | 1022.4 |
| 20260506164514 | 30 | 126 | 20.9 | 29.0 | 0.00 | 0.00 | 0.00 | 68 | 1022.5 |
| 20260506164012 | 30 | 207 | 11.3 | 25.7 | 0.00 | 0.00 | 0.00 | 69 | 1022.6 |
| 20260506163508 | 30 | 129 | 19.3 | 33.8 | 0.00 | 0.00 | 0.00 | 68 | 1022.8 |
| 20260506163003 | 30 | 101 | 20.9 | 33.8 | 0.00 | 0.00 | 0.00 | 68 | 1022.8 |
| 20260506162500 | 30 | 136 | 17.7 | 33.8 | 0.00 | 0.00 | 0.00 | 65 | 1022.9 |
| 20260506161957 | 31 | 124 | 16.1 | 25.7 | 0.00 | 0.00 | 0.00 | 63 | 1022.8 |
| 20260506161455 | 30 | 86 | 14.5 | 25.7 | 0.00 | 0.00 | 0.00 | 68 | 1022.7 |
| 20260506160952 | 30 | 132 | 22.5 | 33.8 | 0.00 | 0.00 | 0.00 | 66 | 1022.7 |
| 20260506160449 | 30 | 148 | 20.9 | 30.6 | 0.00 | 0.00 | 0.00 | 68 | 1022.8 |
| 20260506155946 | 30 | 109 | 22.5 | 37.0 | 0.00 | 0.00 | 0.00 | 66 | 1022.9 |
| 20260506155444 | 30 | 95 | 19.3 | 30.6 | 0.00 | 0.00 | 0.00 | 68 | 1022.9 |